www.pogodaiklimat.ru

Погода и климат >> Архив погоды >> Египет >> Каир


АРХИВ ПОГОДЫ в Каире

Время (UTC), дата Ветер
(напр.,м/с)
 
Видим.   Явления Облачность Т
(С)
Тd
(С)
f
(%)
Тe
(С)
Тes
(С)
Комфортность P
(гПа)
Po
(гПа)
Тmin
(С)
Tmax
(С)
R
(мм)
R24
(мм)
S
(см)
03 10.06 СЗ 4 4000 м мгла ясно +24.0 +19.7 77 +29 +29 душно 1007.5 999.0
06 10.06 З 2 4000 м мгла ясно +26.4 +19.8 67 +32 +40 очень
душно
1008.4 999.9 +24.0
09 10.06 ЮЗ 4 10 км ясно +31.6 +16.3 40 +35 +48 очень
душно
1008.2 999.9
12 10.06 З 5 10 км 4/4 600 м
[Cu med, cong]
+35.7 +10.0 21 +35 +40 очень
жарко
1007.1 998.9
15 10.06 СЗ 4 10 км 4/4 600 м
[Cu med, cong]
+35.2 +10.9 23 +35 +36 очень
жарко
1006.5 998.3
18 10.06 С 2 10 км ясно +33.5 +10.2 24 +33 +33 жарко 1006.8 998.5 +35.9
21 10.06 СВ 46 6000 м пыльный позёмок ясно +28.4 +21.9 68 +37 +37 очень
душно
1008.0 999.6
00 11.06 СВ 3 3000 м дымка ясно +26.5 +22.1 77 +34 +34 очень
душно
1007.8 999.3
03 11.06 В 4 3000 м дымка ясно +25.9 +21.6 77 +33 +33 очень
душно
1008.2 999.7
06 11.06 З 3 6000 м мгла ясно +31.4 +14.4 36 +33 +41 жарко 1009.0 1000.7 +25.1
09 11.06 З 3 6000 м пыльный позёмок ясно +35.6 +11.3 23 +35 +52 опасность
солнечного
удара
1009.1 1000.9
12 11.06 ЮЗ 5 10 км 4/4 600 м
[Cu med, cong]
+37.9 +8.7 17 +36 +42 очень
жарко
1007.6 999.4
15 11.06 СЗ 7 10 км 4/4 600 м
[Cu med, cong]
+36.6 +12.1 23 +36 +37 очень
жарко
1007.5 999.3
18 11.06 С 6 6000 м пыльный позёмок 4/4 600 м
[Cu med, cong]
+30.0 +21.4 60 +38 +38 очень
душно
1010.7 1002.3 +38.9
21 11.06 С 4 10 км 4/4 600 м
[Cu med, cong]
+27.2 +19.8 64 +33 +33 очень
душно
1012.2 1003.7
00 12.06 С 2 10 км ясно +25.5 +18.7 66 +30 +30 душно 1011.5 1003.0
03 12.06 С 3 6000 м мгла 4/0
[Ac trans]
+23.9 +19.8 78 +29 +29 душно 1011.8 1003.2
06 12.06 штиль 0 6000 м дымка 5/5 600 м
[Cu med, cong]
+25.3 +19.7 71 +31 +36 очень
душно
1012.9 1004.4 +23.4
09 12.06 СЗ 3 6000 м мгла ясно +30.8 +15.2 39 +33 +52 опасность
солнечного
удара
1012.8 1004.4
12 12.06 СЗ 4 10 км 4/4 600 м
[Cu med, cong]
+32.6 +14.1 33 +34 +42 очень
жарко
1011.8 1003.5
15 12.06 С 4 10 км 4/4 600 м
[Cu med, cong]
+32.9 +15.5 35 +35 +36 душно 1011.1 1002.8
18 12.06 С 4 10 км ясно +29.7 +19.1 53 +35 +35 очень
душно
1012.6 1004.2 +33.1
21 12.06 С 3 10 км ясно +27.0 +19.1 62 +32 +32 очень
душно
1013.5 1005.0
00 13.06 В 3 10 км ясно +25.1 +18.8 68 +30 +30 душно 1011.8 1003.3
03 13.06 СВ 2 10 км ясно +24.6 +19.1 71 +30 +30 очень
душно
1011.6 1003.0
06 13.06 С 3 10 км ясно +26.9 +17.9 58 +31 +39 душно 1012.7 1004.2 +24.4
09 13.06 СЗ 5 10 км ясно +29.6 +16.4 45 +33 +45 душно 1012.8 1004.4
15 13.06 СЗ 5 10 км 3/3 600 м
[Cu med, cong]
+31.7 +15.2 37 +34 +35 душно 1010.0 1001.7
18 13.06 СЗ 5 10 км ясно +29.3 +15.4 43 +32 +32 душно 1011.0 1002.6 +32.6
21 13.06 СЗ 5 10 км ясно +26.3 +16.0 53 +30 +30 душно 1011.7 1003.2
00 14.06 С 3 10 км ясно +24.6 +16.0 59 +28 +28 душно 1010.4 1001.9
03 14.06 СЗ 2 6000 м мгла 4/4 600 м
[Cu med, cong]
+23.6 +19.5 78 +29 +29 душно 1009.8 1001.2
06 14.06 СЗ 4 6000 м дымка 5/5 600 м
[Cu med, cong]
+24.6 +19.7 74 +30 +33 очень
душно
1010.4 1001.9 +23.6
09 14.06 С 2 6000 м мгла 5/5 600 м
[Cu med, cong As op]
+29.2 +17.2 48 +33 +44 очень
душно
1010.3 1001.9
12 14.06 СЗ 3 6000 м мгла 5/5 600 м
[Cu med, cong]
+31.5 +16.6 41 +35 +42 очень
душно
1008.7 1000.4
15 14.06 СЗ 5 10 км 5/5 600 м
[Cu med, cong]
+32.2 +14.8 35 +34 +35 душно 1007.6 999.3
18 14.06 С 4 10 км 3/3 600 м
[Cu med, cong]
+30.5 +15.8 41 +33 +33 душно 1008.3 999.9 +32.4
21 14.06 СВ 4 10 км 3/3 600 м
[Cu med, cong]
+27.1 +20.9 69 +34 +34 очень
душно
1008.8 1000.3
00 15.06 С 3 10 км 5/5 600 м
[Cu med, cong]
+25.2 +20.9 77 +32 +32 очень
душно
1007.9 999.4
03 15.06 С 2 6000 м дымка 5/5 600 м
[Cu med, cong]
+24.2 +20.7 81 +30 +30 очень
душно
1007.8 999.3
06 15.06 штиль 0 4000 м мгла 5/5 600 м
[Cu med, cong]
+25.6 +19.5 69 +31 +37 очень
душно
1008.6 1000.1 +24.2
09 15.06 З 3 10 км 4/4 600 м
[Cu med, cong]
+30.9 +16.1 41 +34 +44 душно 1008.6 1000.2
12 15.06 З 3 10 км 4/4 600 м
[Cu med, cong]
+33.7 +15.7 34 +36 +45 очень
душно
1007.3 999.0
15 15.06 З 4 10 км 4/4 600 м
[Cu med, cong]
+33.8 +14.3 31 +35 +37 очень
жарко
1006.2 997.9
18 15.06 СЗ 3 10 км ясно +32.3 +15.3 36 +35 +35 очень
душно
1006.7 998.4 +34.6
21 15.06 СЗ 5 10 км ясно +28.1 +17.3 52 +32 +32 душно 1008.6 1000.2
00 16.06 СЗ 4 10 км ясно +24.7 +20.2 76 +30 +30 очень
душно
1008.0 999.5
03 16.06 СЗ 2 10 км ясно +24.2 +20.1 78 +30 +30 очень
душно
1008.3 999.8
06 16.06 ЮЗ 3 10 км ясно +27.8 +18.5 57 +33 +40 очень
душно
1009.0 1000.6 +23.8
09 16.06 З 5 10 км ясно +31.7 +14.4 35 +33 +46 жарко 1009.1 1000.8
12 16.06 З 5 10 км ясно +34.8 +13.0 27 +35 +44 очень
жарко
1007.7 999.5
15 16.06 З 8 10 км ясно +35.0 +11.4 24 +35 +35 очень
жарко
1006.7 998.5
18 16.06 СЗ 5 10 км ясно +29.9 +16.4 44 +33 +33 душно 1008.8 1000.4 +35.8
21 16.06 СЗ 3 10 км ясно +27.0 +18.0 58 +32 +32 очень
душно
1009.7 1001.2
00 17.06 СЗ 3 10 км ясно +25.0 +17.8 64 +29 +29 душно 1009.2 1000.7

 

Местоположение метеостанции Каир (Египет): широта 30.13 долгота 31.40 высота над уровнем моря 74 м.

В архиве по умолчанию представлена погода в Каире за последнюю неделю. Архивные данные за месяц целиком и за предыдущие месяцы, начиная с января 2011 года, Вы можете получить, выбрав интересующий диапазон дат из раскрывающегося списка и нажав кнопку "Ввод!".


*Определитесь, кто Вы:
робот инопланетянин человек

Внимание! Время в таблицах - всемирное. Для получения местного времени необходимо прибавить поправку, которая равна 2 ч.

Смотрите также архив погоды в соседних городах и на ближайших метеорологических станциях:

Погода в Исмаилии (Египет) (97 км)
Погода в Вади-эль-Натруон (Египет) (119 км)
Погода в Рас-Седре (Египет) (141 км)
Погода в Порт-Саиде (Египет) (151 км)
Погода в Балтиме (Египет) (161 км)
Погода в Александрии (Египет) (183 км)
Погода в Абу Редис (Египет) (220 км)
Погода в Нехеле (Египет) (226 км)
Погода в Миня (Египет) (237 км)
Погода в Эль-Арише (Египет) (255 км)

Пояснения к столбцам:

Ветер - указаны скорость ветра в м/с - средняя за 10 мин, порывы в срок и между сроками (в фигурных скобках) и направление, откуда дует ветер: С - северный, СВ - северо-восточный, В - восточный, ЮВ - юго-восточный, Ю - южный, ЮЗ - юго-западный, З - западный, СЗ - северо-западный.
Видимость - горизонтальная дальность видимости в метрах или километрах. При видимости от 1 до 10 км при отсутствии осадков обычно наблюдается дымка, при ухудшении видимости до 1 км и менее - туман. В сухую погоду видимость может ухудшаться дымом, пылью или мглою.
Явления - указаны атмосферные явления, наблюдавшиеся в срок или в последний час перед сроком; фигурными скобками обозначены явления, наблюдавшиеся между сроками (за 1-3 часа до срока); квадратными скобками обозначены град или гололедные отложения с указанием их диаметра в мм.
Облачность - указаны через наклонную черту общая и нижняя облачность в баллах и высота нижней границы облаков в метрах; квадратными скобками обозначены формы облаков: Ci - перистые, Cs - перисто-слоистые, Cc - перисто-кучевые, Ac - высококучевые, As - высокослоистые, Sc - слоисто-кучевые, Ns - слоисто-дождевые, Cu - кучевые, Cb - кучево-дождевые. Подробнее классификацию облаков см. в Атласе облаков (PDF).
T - Температура воздуха - температура, измеренная на высоте 2 м над землей.
Td - Температура точки росы - температура, при понижении до которой содержащийся в воздухе водяной пар достигнет насыщения.
f - Относительная влажность воздуха - влажноcть воздуха, измеренная на высоте 2 м над землей.
Te - Эффективная температура - температура, которую ощущает одетый по сезону человек в тени. Характеристика душности погоды. При расчете учитывается влияние влажности воздуха и скорости ветра на теплоощущения человека.
Tes - Эффективная температура на солнце - температура, которую ощущает человек, с поправкой на солнечный нагрев. Характеристика знойности погоды. Зависит от высоты солнца над горизонтом, облачности и скорости ветра. Ночью, в пасмурную погоду, а также при ветре 12 м/с и более поправка равна нулю.
P - Атмосферное давление - приведенное к уровню моря атмосферное давление.
Po - Атмосферное давление - измеренное на уровне метеостанции атмосферное давление.
Tmin - Минимальная температура - минимум температуры воздуха на высоте 2 м над землей.
Tmax - Максимальная температура - максимум температуры воздуха на высоте 2 м над землей.
R - Количество осадков - Количество выпавших осадков за период времени, мм. При наведении курсора мыши на число - период времени, за который выпало указанное количество осадков.
R24 - Количество осадков - Количество выпавших осадков за 24 часа, мм.
S - Снежный покров - Высота снежного покрова, см. При наведении курсора мыши на число - состояние снежного покрова и степень покрытия местности в баллах.